TimeCST,TemperatureF,Dew PointF,Humidity,Sea Level PressureIn,VisibilityMPH,Wind Direction,Wind SpeedMPH,Gust SpeedMPH,PrecipitationIn,Events,Conditions,WindDirDegrees,DateUTC
12:15 AM,11.1,8.2,88,30.18,10.0,Calm,Calm,-,N/A,,Clear,0,2013-02-17 06:15:00
12:35 AM,10.2,7.7,90,30.18,10.0,Calm,Calm,-,N/A,,Clear,0,2013-02-17 06:35:00
12:55 AM,10.6,8.4,91,30.18,10.0,Calm,Calm,-,N/A,,Clear,0,2013-02-17 06:55:00
1:15 AM,10.2,7.7,90,30.17,10.0,Calm,Calm,-,N/A,,Clear,0,2013-02-17 07:15:00
1:35 AM,9.5,7.2,90,30.18,10.0,Calm,Calm,-,N/A,,Clear,0,2013-02-17 07:35:00
1:55 AM,9.3,6.8,89,30.18,10.0,Calm,Calm,-,N/A,,Clear,0,2013-02-17 07:55:00
2:15 AM,8.4,5.9,89,30.18,10.0,Calm,Calm,-,N/A,,Clear,0,2013-02-17 08:15:00
2:35 AM,8.4,5.7,89,30.18,10.0,Calm,Calm,-,N/A,,Clear,0,2013-02-17 08:35:00
2:55 AM,8.6,6.3,90,30.18,10.0,Calm,Calm,-,N/A,,Clear,0,2013-02-17 08:55:00
3:15 AM,8.6,6.3,90,30.17,10.0,Calm,Calm,-,N/A,,Clear,0,2013-02-17 09:15:00
3:35 AM,8.6,6.1,89,30.17,10.0,Calm,Calm,-,N/A,,Clear,0,2013-02-17 09:35:00
3:55 AM,7.7,5.0,89,30.17,10.0,Calm,Calm,-,N/A,,Clear,0,2013-02-17 09:55:00
4:15 AM,8.4,5.9,89,30.17,10.0,Calm,Calm,-,N/A,,Clear,0,2013-02-17 10:15:00
4:35 AM,7.7,5.7,92,30.18,10.0,Calm,Calm,-,N/A,,Clear,0,2013-02-17 10:35:00
4:55 AM,7.9,5.7,91,30.18,10.0,Calm,Calm,-,N/A,,Clear,0,2013-02-17 10:55:00
5:15 AM,6.8,4.5,90,30.19,10.0,Calm,Calm,-,N/A,,Clear,0,2013-02-17 11:15:00
5:35 AM,6.8,4.3,89,30.18,10.0,Calm,Calm,-,N/A,,Clear,0,2013-02-17 11:35:00
6:15 AM,7.7,5.7,92,30.19,10.0,SW,3.5,-,N/A,,Clear,220,2013-02-17 12:15:00
6:35 AM,7.7,5.5,91,30.19,10.0,Calm,Calm,-,N/A,,Clear,0,2013-02-17 12:35:00
6:55 AM,7.7,5.5,91,30.19,10.0,Calm,Calm,-,N/A,,Clear,0,2013-02-17 12:55:00
7:15 AM,8.2,5.9,90,30.19,10.0,Calm,Calm,-,N/A,,Clear,0,2013-02-17 13:15:00
7:35 AM,9.7,7.5,91,30.19,10.0,Calm,Calm,-,N/A,,Clear,0,2013-02-17 13:35:00
7:55 AM,11.3,8.1,87,30.19,10.0,Calm,Calm,-,N/A,,Clear,0,2013-02-17 13:55:00
8:15 AM,13.5,8.1,79,30.19,10.0,South,4.6,-,N/A,,Clear,180,2013-02-17 14:15:00
8:55 AM,16.7,6.1,63,30.19,10.0,SSE,6.9,-,N/A,,Clear,160,2013-02-17 14:55:00
9:15 AM,17.4,5.5,60,30.19,10.0,SSE,5.8,-,N/A,,Clear,160,2013-02-17 15:15:00
9:35 AM,18.1,6.3,60,30.19,10.0,SE,8.1,-,N/A,,Clear,140,2013-02-17 15:35:00
9:55 AM,19.2,7.2,59,30.18,10.0,SE,6.9,-,N/A,,Clear,130,2013-02-17 15:55:00
10:15 AM,19.9,6.3,55,30.19,10.0,SSE,4.6,-,N/A,,Clear,160,2013-02-17 16:15:00
10:35 AM,21.0,6.8,54,30.19,10.0,SSE,5.8,-,N/A,,Clear,160,2013-02-17 16:35:00
10:55 AM,21.7,7.9,55,30.19,10.0,SSE,5.8,-,N/A,,Clear,150,2013-02-17 16:55:00
11:15 AM,23.0,9.1,55,30.19,10.0,South,9.2,-,N/A,,Clear,190,2013-02-17 17:15:00
11:35 AM,24.1,10.9,57,30.19,10.0,South,9.2,-,N/A,,Clear,170,2013-02-17 17:35:00
11:55 AM,25.2,11.5,56,30.18,10.0,South,10.4,-,N/A,,Clear,180,2013-02-17 17:55:00
12:15 PM,25.3,11.3,55,30.17,10.0,SSE,9.2,-,N/A,,Clear,150,2013-02-17 18:15:00
12:35 PM,26.1,12.2,56,30.16,10.0,South,8.1,-,N/A,,Clear,170,2013-02-17 18:35:00
12:55 PM,26.8,13.1,56,30.14,10.0,SSE,9.2,-,N/A,,Clear,150,2013-02-17 18:55:00
1:15 PM,27.9,13.1,54,30.14,10.0,South,11.5,-,N/A,,Clear,170,2013-02-17 19:15:00
1:35 PM,28.4,12.6,52,30.12,10.0,SE,11.5,-,N/A,,Clear,140,2013-02-17 19:35:00
1:55 PM,28.6,14.4,55,30.11,10.0,SSE,11.5,-,N/A,,Clear,160,2013-02-17 19:55:00
2:15 PM,29.8,16.7,58,30.10,10.0,SE,12.7,-,N/A,,Clear,140,2013-02-17 20:15:00
2:35 PM,29.3,16.0,58,30.09,10.0,SSE,11.5,-,N/A,,Clear,150,2013-02-17 20:35:00
2:55 PM,30.2,17.4,59,30.08,10.0,SE,13.8,18.4,N/A,,Clear,140,2013-02-17 20:55:00
3:15 PM,30.6,17.4,58,30.08,10.0,SSE,11.5,-,N/A,,Clear,150,2013-02-17 21:15:00
3:35 PM,30.2,18.0,60,30.07,10.0,SSE,13.8,-,N/A,,Clear,150,2013-02-17 21:35:00
3:55 PM,30.4,18.1,60,30.06,10.0,SSE,15.0,-,N/A,,Clear,150,2013-02-17 21:55:00
4:15 PM,30.2,18.5,62,30.06,10.0,SSE,16.1,-,N/A,,Clear,150,2013-02-17 22:15:00
4:35 PM,29.8,18.7,63,30.06,10.0,SSE,17.3,-,N/A,,Clear,150,2013-02-17 22:35:00
4:55 PM,30.0,18.9,63,30.06,10.0,SSE,16.1,-,N/A,,Clear,150,2013-02-17 22:55:00
5:15 PM,29.7,18.9,64,30.05,10.0,SSE,15.0,-,N/A,,Clear,150,2013-02-17 23:15:00
5:35 PM,29.1,19.4,67,30.04,10.0,SE,11.5,-,N/A,,Clear,140,2013-02-17 23:35:00
5:55 PM,28.6,20.3,71,30.04,10.0,SE,9.2,-,N/A,,Clear,140,2013-02-17 23:55:00
6:15 PM,28.2,21.0,74,30.04,10.0,SE,11.5,-,N/A,,Clear,140,2013-02-18 00:15:00
6:35 PM,28.0,21.2,76,30.03,10.0,SE,10.4,-,N/A,,Clear,140,2013-02-18 00:35:00
6:55 PM,28.0,21.0,75,30.02,10.0,SE,12.7,-,N/A,,Clear,130,2013-02-18 00:55:00
7:15 PM,28.2,21.2,75,30.01,10.0,SE,15.0,-,N/A,,Clear,130,2013-02-18 01:15:00
7:35 PM,28.0,21.2,76,30.01,10.0,SE,12.7,-,N/A,,Clear,140,2013-02-18 01:35:00
7:55 PM,27.9,21.2,76,30.00,10.0,SE,15.0,-,N/A,,Clear,140,2013-02-18 01:55:00
8:15 PM,28.0,21.2,76,30.00,10.0,SE,15.0,19.6,N/A,,Clear,140,2013-02-18 02:15:00
8:35 PM,28.0,21.4,76,30.00,10.0,SE,15.0,-,N/A,,Clear,140,2013-02-18 02:35:00
8:55 PM,28.2,21.7,77,30.00,10.0,SSE,13.8,-,N/A,,Clear,150,2013-02-18 02:55:00
9:15 PM,28.2,22.1,78,29.99,10.0,SSE,16.1,-,N/A,,Clear,150,2013-02-18 03:15:00
9:35 PM,28.2,22.1,78,29.99,10.0,SSE,16.1,-,N/A,,Clear,150,2013-02-18 03:35:00
9:55 PM,28.0,22.5,80,29.98,10.0,SSE,17.3,-,N/A,,Clear,150,2013-02-18 03:55:00
10:15 PM,28.0,22.5,80,29.97,10.0,SE,16.1,-,N/A,,Clear,140,2013-02-18 04:15:00
10:35 PM,28.2,22.5,79,29.96,10.0,SSE,16.1,-,N/A,,Clear,150,2013-02-18 04:35:00
10:55 PM,28.2,22.1,78,29.95,10.0,SE,16.1,21.9,N/A,,Clear,140,2013-02-18 04:55:00
11:15 PM,28.0,22.1,78,29.94,10.0,SE,17.3,23.0,N/A,,Clear,140,2013-02-18 05:15:00
11:35 PM,28.0,21.9,78,29.93,10.0,SE,18.4,23.0,N/A,,Clear,140,2013-02-18 05:35:00
11:55 PM,27.9,21.9,78,29.92,10.0,SSE,18.4,-,N/A,,Clear,150,2013-02-18 05:55:00